Location: Lombard
(41.8800°N, 88.0080°W)
Time: 04:09:51
(UTC-06:00)

Envisat - Visible Passes

Search period start: 01 December 2021 00:00
Search period end: 11 December 2021 00:00
Orbit: 764 x 766 km, 98.2° (Epoch: 30 November)

Date Brightness Start Highest point End Pass type
(mag) Time Alt. Az. Time Alt. Az. Time Alt. Az.
01 Dec 3.2 04:47:10 10° NNE 04:52:15 71° ESE 04:57:18 10° S visible
01 Dec 4.5 06:27:48 10° NNW 06:30:39 15° WNW 06:33:31 10° W visible
02 Dec 4.7 04:10:44 10° NNE 04:15:15 32° E 04:19:45 10° SSE visible
02 Dec 3.7 05:49:46 10° N 05:54:12 31° WNW 05:58:37 10° SW visible
02 Dec 5.7 17:05:24 10° SW 17:09:21 22° W 17:13:18 10° NW visible
03 Dec 5.8 03:35:22 10° ENE 03:38:03 14° E 03:40:45 10° ESE visible
03 Dec 2.9 05:12:29 10° N 05:17:32 67° WNW 05:22:33 10° SSW visible
04 Dec 3.6 04:35:41 10° NNE 04:40:41 55° E 04:45:39 10° S visible
04 Dec 4.3 06:15:45 10° NNW 06:19:15 19° WNW 06:22:44 10° WSW visible
04 Dec 6.1 17:32:44 10° WSW 17:34:56 13° W 17:37:07 10° WNW visible
05 Dec 5.1 03:59:27 10° NE 04:03:37 25° E 04:07:46 10° SSE visible
05 Dec 3.4 05:38:01 10° N 05:42:43 39° WNW 05:47:24 10° SW visible
05 Dec 5.3 16:53:21 10° SSW 16:57:42 28° W 17:02:04 10° NW visible
06 Dec 6.1 03:25:04 10° ENE 03:26:21 11° E 03:27:38 10° ESE visible
06 Dec 2.9 05:00:54 10° NNE 05:06:00 85° WNW 05:11:05 10° SSW visible
07 Dec 4.1 04:24:14 10° NNE 04:29:05 43° E 04:33:54 10° S visible
07 Dec 4.0 06:03:50 10° NNW 06:07:49 24° WNW 06:11:47 10° WSW visible
07 Dec 5.9 17:20:05 10° SW 17:23:14 16° W 17:26:24 10° NW visible
08 Dec 5.4 03:48:17 10° NE 03:51:58 20° E 03:55:37 10° SE visible
08 Dec 3.1 05:26:20 10° N 05:31:13 49° WNW 05:36:06 10° SW visible
09 Dec 3.1 04:49:21 10° NNE 04:54:27 76° ESE 04:59:31 10° S visible
09 Dec 4.5 06:30:11 10° NNW 06:32:48 14° WNW 06:35:26 10° W visible
10 Dec 4.5 04:12:51 10° NNE 04:17:28 34° E 04:22:03 10° SSE visible
10 Dec 3.7 05:52:01 10° N 05:56:22 29° WNW 06:00:41 10° SW visible
10 Dec 5.8 17:07:47 10° SW 17:11:33 21° W 17:15:22 10° NW visible
